Tracking 20721 objects as of 1-Jun-2020
HD Live streaming from Space Station
objects crossing your sky now

FLOCK 3P 4

Track FLOCK 3P 4 now!
10-day predictions
FLOCK 3P 4 is classified as:


NORAD ID: 41965
Int'l Code: 2017-008T
Perigee: 488.4 km
Apogee: 499.6 km
Inclination: 97.4 °
Period: 94.3 minutes
Semi major axis: 6864 km
RCS: Unknown
Launch date: February 15, 2017
Source: United States (US)
Launch site: SRIHARIKOTA (SRI)
aabbcc
Your satellite tracking list
Your tracking list is empty




NASA's NSSDC Master Catalog

Two Line Element Set (TLE):
1 41965U 17008T   20151.69677611 +.00001270 +00000-0 +51677-4 0  9993
2 41965 097.3643 219.4394 0008106 009.8389 350.3007 15.26311211182791
Source of the keplerian elements: AFSPC